Regional Weather Roundup
Issued by NWS Cleveland, OH

Home | Current Version | Previous Version | Text Only | Print | Product List | Glossary Off
Versions: 1 2 3 4 5 6 7 8 9 10 11 12 13 14 15 16 17 18 19 20 21 22 23 24 25 26 27 28 29 30 31 32 33 34 35 36 37 38 39 40 41 42 43 44 45 46 47 48 49 50

000
ASUS41 KCLE 211910
RWRCLE
OHIO REGIONAL WEATHER ROUNDUP
NATIONAL WEATHER SERVICE WILMINGTON, OH
200 PM EST TUE FEB 21 2017

NOTE: "FAIR" INDICATES FEW OR NO CLOUDS BELOW 12,000 FEET WITH NO
SIGNIFICANT WEATHER AND/OR OBSTRUCTIONS TO VISIBILITY.

OHZ001>008-015>018-024>027-034-035-043-044-212000-
   NORTHWEST OHIO

CITY           SKY/WX    TMP DP  RH WIND       PRES   REMARKS
DEFIANCE       CLOUDY    55  48  77 S5        29.95F
FINDLAY        FAIR      63  45  51 W7        29.95F
TOLEDO EXPRESS LGT RAIN  55  50  83 SW8       29.95F
TOLEDO EXEC    LGT RAIN  58  50  75 SW7       29.96F
LIMA           FAIR      62  48  60 SW9       29.97F
$$

OHZ009>014-019>023-028>033-038-089-212000-
   NORTHEAST OHIO

CITY           SKY/WX    TMP DP  RH WIND       PRES   REMARKS
CLE-HOPKINS    CLOUDY    67  41  38 SW6       29.98F
CLE-LAKEFRONT  FAIR      61  41  47 W8        29.95F
CUY CO. ARPT   CLOUDY    66  45  45 W12       29.97F
LORAIN-ELYRIA  FAIR      63  44  50 W9        29.97F
ASHTABULA      FAIR      59  38  45 S10       29.97F
AKRON-CANTON   CLOUDY    63  42  46 SW13      29.99S
WOOSTER        FAIR      61  44  53 SW12      29.99S
MANSFIELD      FAIR      63  45  51 SW9       29.98F
YOUNGSTOWN     CLOUDY    62  39  42 S7        29.97F
$$

OHZ042-051>053-060>062-070>072-077>081-212000-
  SOUTHWEST OHIO

CITY           SKY/WX    TMP DP  RH WIND       PRES   REMARKS
CINC-COVINGTON CLOUDY    67  49  52 SW7       29.99F
CINC-LUNKEN    CLOUDY    68  51  54 SW5       29.99F
HAMILTON       FAIR      66  48  52 W3        30.00F
DAYTON         CLOUDY    64  46  52 SW14      29.98F
WRIGHT-PAT AFB CLOUDY    65  46  50 SW13      29.98F
DAYTON GENERAL FAIR      65  47  52 SW9       29.99S
WILMINGTON     FAIR      64  49  57 SW7       29.99F
$$

OHZ036-037-039>041-045>050-054>059-063>069-073>076-082>088-212000-
  CENTRAL AND SOUTHEAST OHIO

CITY           SKY/WX    TMP DP  RH WIND       PRES   REMARKS
COLUMBUS       CLOUDY    66  46  48 SW3       29.98F
OSU AIRPORT    FAIR      66  48  52 SW10      29.98F
BOLTON FIELD   SUNNY     64  48  55 SW8       30.00F
RICKENBACK AFB FAIR      63  46  54 CALM      29.98F
NEWARK         FAIR      65  46  50 SW10      29.98F
MARION         FAIR      63  46  54 SW12      29.99F
LANCASTER      FAIR      67  46  47 W5        30.00F
ZANESVILLE     FAIR      67  44  43 W7        30.00F
NEW PHILLY     FAIR      65  44  46 VRB5      29.99F
$$




USA.gov is the U.S. government's official web portal to all federal, state and local government web resources and services.